User: anonymous   Login
Location: Ciserano
(45.5833°N, 9.6000°E)
Time: 16:46:14
(UTC+00:00)
Language:

FENGYUN 1C DEB - Orbit

View from above orbital plane
View from above orbital plane
View from above satellite
View from above satellite

Ground track
Ground track

The orbit data is extracted from the following two-line orbital elements,

1 33741U 99025DJE 21172.44475996  .00000419  00000-0  31105-3 0  9991
2 33741  98.5129 169.2628 0147416 356.4370   3.5731 13.95089757341190
Epoch (UTC): 21 June 2021 10:40:27
Eccentricity: 0.0147416
inclination: 98.5129°
perigee height: 803 km
apogee height: 1018 km
right ascension of ascending node: 169.2628°
argument of perigee: 356.4370°
revolutions per day: 13.95089757
mean anomaly at epoch: 3.5731°
orbit number at epoch: 34119

The dashed part of the orbit path shows where the satellite is in the earth's shadow,  

DLR